Wetbulb
36.65 33.86 29.63 33.15 34.26 35.14 32.97 30.88 29.40 30.27 36.87 34.40 32.60 31.53 33.56 37.60 37.29 36.66 37.96 38.03 38.77 39.90 42.58 44.28 44.80 44.12 43.68 44.13 44.50 46.30 47.56 49.13 51.70 53.19 56.29 62.37 64.12 64.43 65.14 66.16 66.88 66.84 66.96 67.21
33.59 30.18 35.30 38.37 38.19 36.39 34.46 31.70 29.36 32.90 36.58 34.51 30.99 30.40 33.59 35.98 36.02 36.68 37.43 37.81 38.25 39.20 40.98 43.37 44.16 44.05 43.11 43.00 43.77 44.72 46.64 48.10 49.89 52.31 54.82 59.99 61.90 66.41 65.57 65.52 65.39 66.06 66.69 67.16
31.14 34.09 39.54 38.06 35.58 34.65 32.62 30.94 30.17 30.26 33.95 33.61 31.69 28.58 31.45 35.77 36.83 38.42 38.61 39.30 39.63 39.15 39.55 41.26 43.01 43.21 43.08 42.47 42.66 43.94 44.99 46.88 48.68 50.86 53.39 55.42 58.00 57.95 63.84 61.10 64.92 64.63 66.00 67.16
34.76 37.92 36.78 34.78 34.29 34.54 30.38 35.68 35.56 34.16 29.37 23.38 31.47 20.78 30.01 31.74 33.14 34.95 36.47 37.44 38.27 39.07 39.82 40.91 41.84 42.55 42.53 42.60 42.76 43.64 44.52 45.57 47.82 48.74 50.90 51.61 52.31 52.25 54.41 55.40 56.77 60.82 63.51 65.21
31.50 33.57 33.56 32.66 33.36 36.43 33.62 36.94 35.08 34.05 29.28 27.47 28.37 23.81 25.36 30.91 29.69 31.77 35.68 38.09 38.94 39.92 39.68 39.82 40.69 41.99 42.99 42.49 41.36 42.31 44.02 44.84 45.97 47.38 48.10 49.51 49.57 50.84 52.77 53.65 54.07 54.63 57.40 58.28
33.35 35.85 34.99 34.69 36.78 37.43 37.93 34.31 33.14 31.82 29.07 19.87 27.61 25.66 18.19 24.10 27.96 32.88 35.42 37.25 38.62 39.04 40.16 40.41 41.20 42.22 41.55 42.03 42.06 41.92 42.81 43.95 44.91 45.74 46.70 47.16 47.63 48.20 48.86 49.77 51.29 52.01 53.49 54.67
31.55 32.33 34.19 37.77 33.30 34.79 33.44 28.88 21.62 21.07 18.09 18.96 30.21 25.09 22.22 29.46 33.76 35.17 35.83 36.50 38.09 38.75 39.26 39.15 39.35 39.78 41.09 40.81 41.74 42.37 42.67 42.67 43.93 44.31 45.21 46.26 46.68 47.30 47.80 48.44 48.42 48.20 48.54 50.84
24.44 23.65 31.55 36.48 33.07 29.64 29.51 29.01 23.03 20.19 19.91 23.46 30.34 20.78 25.55 33.54 36.44 37.33 38.53 37.83 38.58 38.50 39.09 38.90 39.41 39.98 40.02 41.25 41.18 41.36 42.67 43.82 43.91 43.77 44.30 45.04 46.54 46.49 46.91 47.53 48.44 48.07 48.19 48.85
26.15 24.85 34.91 36.01 35.55 34.21 30.45 23.39 30.74 26.85 26.92 23.07 24.49 23.54 30.47 36.19 36.22 37.09 36.81 38.13 37.29 37.53 38.30 39.04 39.03 40.34 40.46 40.80 41.49 40.95 41.60 42.75 44.31 45.21 45.40 44.20 45.15 44.78 46.15 45.29 46.77 46.88 47.32 48.21
31.75 25.04 33.06 34.74 36.52 35.99 32.74 34.56 24.52 23.73 12.85 15.85 23.94 23.90 21.35 29.82 32.71 35.40 35.57 35.92 37.43 38.35 38.55 39.49 39.82 40.12 40.79 41.30 42.04 41.92 42.16 41.89 41.78 44.18 45.16 44.68 43.35 44.05 43.85 44.76 43.18 43.72 44.42 45.92
33.16 27.99 28.39 33.25 29.92 27.97 29.84 26.48 27.67 26.96 23.57 17.20 13.96 18.86 30.69 32.16 34.18 33.64 35.14 36.65 37.05 37.58 38.01 38.37 40.09 40.48 40.86 41.19 41.36 41.73 41.77 41.48 39.97 41.89 43.21 43.47 42.83 42.82 42.21 43.31 43.60 42.49 42.63 43.28
33.02 28.30 22.38 26.96 32.81 35.39 32.98 29.34 28.53 14.61 13.62 16.76 13.80 14.30 35.20 35.10 35.79 36.27 35.68 37.52 38.01 38.56 38.23 38.85 40.40 40.47 40.73 40.48 41.00 40.93 40.15 38.62 39.51 41.26 41.34 40.99 41.27 40.64 40.23 41.43 41.70 41.62 41.55 42.40
33.03 25.06 20.64 24.21 28.08 30.56 28.79 31.52 30.67 27.42 23.63 16.32 11.49 14.67 35.49 36.41 35.77 37.25 36.56 36.02 37.10 37.97 37.26 37.38 39.02 39.95 40.01 39.29 38.51 37.94 37.61 38.56 39.85 40.10 39.30 38.72 38.50 38.67 38.74 39.22 39.87 39.79 40.21 39.87
36.76 28.11 24.63 20.81 24.10 26.75 25.91 29.69 30.95 28.08 20.72 21.52 21.19 24.86 32.22 34.80 34.85 35.19 33.80 34.06 34.65 35.53 36.32 35.11 34.52 34.64 35.62 36.92 36.85 37.31 37.60 38.59 38.71 38.76 37.65 37.09 37.09 37.54 37.74 38.08 38.38 38.50 38.57 37.27
31.19 26.59 28.88 28.74 30.40 29.86 28.57 29.37 29.82 27.33 27.78 24.35 27.16 27.69 32.60 35.20 35.12 33.11 33.95 34.39 34.70 34.60 34.70 35.15 34.64 34.72 35.67 36.29 36.63 37.34 37.40 38.24 38.04 37.49 37.07 36.76 37.35 37.67 37.54 37.43 37.03 37.06 36.68 36.32
30.77 23.70 26.69 19.34 29.26 29.38 26.97 29.78 30.63 30.28 30.12 30.42 29.83 28.90 35.91 36.36 33.93 32.94 34.54 34.87 33.99 34.14 35.02 36.07 36.34 36.81 36.79 36.75 36.59 37.20 37.12 37.61 37.51 37.04 36.82 37.68 37.70 37.82 37.27 36.83 35.96 35.46 35.18 34.67
28.29 25.26 22.49 18.93 27.19 26.93 21.51 27.77 29.68 30.99 32.18 31.60 26.77 30.40 33.54 32.61 33.69 34.05 33.46 34.70 34.13 34.51 35.35 35.87 36.33 36.60 36.49 36.07 36.97 35.73 36.27 37.32 37.10 36.77 37.24 37.30 37.35 37.10 36.44 35.66 34.51 33.58 33.07 33.18
27.58 25.54 21.46 15.23 23.18 8.83 26.74 32.07 33.20 31.63 32.35 34.01 32.68 32.65 34.61 35.61 35.25 35.69 35.42 34.28 34.19 35.27 35.93 35.95 35.97 36.04 36.22 36.05 36.03 36.37 36.43 36.40 36.25 35.98 36.34 36.78 36.47 35.99 32.47 33.31 32.08 31.78 32.66 32.33
31.53 26.11 16.84 14.65 15.20 24.03 27.84 30.86 30.42 28.78 28.69 34.25 34.66 34.45 33.56 33.31 33.27 31.35 35.44 35.47 35.40 35.75 35.77 35.49 36.21 36.24 36.05 35.97 36.58 36.29 35.61 35.53 35.48 35.44 35.10 35.72 35.73 35.02 34.37 30.65 28.95 28.22 30.70 32.45
30.67 28.36 20.88 16.94 9.91 12.90 26.26 32.34 34.90 34.07 24.12 33.37 35.62 33.25 32.60 34.16 28.32 28.42 34.84 36.02 35.96 36.84 36.28 36.14 36.63 36.50 35.88 35.85 36.14 35.31 34.45 34.35 34.25 35.16 35.48 35.75 35.39 34.28 33.47 33.65 33.30 33.58 33.75 33.17
24.95 19.71 15.60 9.16 12.39 22.71 30.70 34.38 35.12 23.05 26.40 32.55 36.43 35.03 34.19 33.83 34.87 34.13 35.70 35.55 36.52 36.43 36.91 37.02 36.56 35.67 35.36 35.89 35.62 34.16 33.93 33.32 35.54 36.00 36.51 36.40 35.02 35.10 35.18 34.24 33.97 33.51 33.29 33.01
25.63 19.92 15.04 17.68 9.27 16.98 34.02 32.95 28.83 31.59 31.62 33.83 34.96 36.42 35.84 34.56 34.61 36.08 36.05 34.87 35.78 36.00 36.47 36.63 35.51 35.16 34.96 35.30 34.47 33.02 32.23 34.41 35.37 35.39 35.16 34.29 34.10 34.61 34.38 33.47 33.17 32.94 32.56 31.69
25.19 27.00 25.24 25.41 24.69 32.04 33.64 33.04 34.89 34.55 34.62 34.12 34.64 37.24 37.51 34.66 34.82 35.26 34.84 34.72 35.39 35.49 35.08 35.79 34.95 34.20 34.15 34.06 33.44 32.00 32.50 34.14 34.39 33.77 33.04 32.47 32.68 33.12 33.57 32.38 31.96 31.67 31.97 31.08
30.15 32.24 27.32 28.56 31.27 33.45 34.63 36.27 37.33 36.91 35.65 35.84 36.07 37.19 37.00 35.13 35.19 34.34 34.18 33.49 33.83 33.39 33.35 34.10 33.81 32.99 32.16 32.55 32.79 32.48 33.29 33.94 33.76 32.55 31.94 31.34 30.01 30.96 32.74 32.83 32.13 31.09 31.08 29.82
30.06 32.57 28.54 27.82 32.11 33.86 35.43 36.63 37.76 36.49 36.52 37.36 37.27 37.78 37.07 35.72 35.05 34.95 33.43 33.49 33.92 33.40 33.50 33.66 32.54 31.75 31.61 32.19 31.98 32.78 32.81 33.34 32.53 32.00 31.30 30.35 29.31 31.46 31.75 31.79 29.95 30.22 30.65 30.78
30.74 29.05 27.15 26.11 34.60 33.61 34.35 36.57 38.32 36.44 36.77 38.21 37.62 36.13 36.71 37.08 35.14 35.05 33.82 34.04 33.83 32.88 32.63 31.90 31.73 31.42 31.49 31.63 31.70 32.29 33.05 33.39 31.50 30.92 30.04 28.09 28.33 30.44 31.58 30.89 29.45 32.06 32.64 32.86
MSLP
1015.20 1016.05 1016.76 1016.79 1016.58 1016.86 1017.96 1019.03 1020.73 1022.27 1022.89 1023.80 1025.75 1026.59 1027.03 1027.09 1026.83 1026.77 1026.63 1026.46 1026.15 1025.69 1025.40 1024.71 1023.96 1023.23 1022.68 1022.06 1021.45 1020.61 1019.72 1018.84 1017.86 1016.71 1015.65 1014.40 1013.92 1013.70 1013.67 1013.65 1013.69 1013.76 1013.58 1013.70
1016.30 1016.89 1016.96 1016.85 1016.94 1017.46 1018.55 1019.65 1021.46 1022.77 1023.47 1024.17 1026.10 1026.96 1027.28 1027.33 1027.54 1027.54 1027.39 1027.00 1026.69 1026.28 1025.60 1024.97 1024.49 1023.91 1023.34 1022.89 1022.28 1021.46 1020.67 1019.82 1019.01 1018.11 1016.96 1015.79 1014.77 1013.73 1013.17 1012.98 1013.21 1013.36 1013.36 1013.17
1016.72 1017.25 1016.95 1017.02 1017.69 1018.27 1019.38 1019.93 1020.82 1022.15 1023.73 1024.60 1025.38 1026.91 1027.47 1027.38 1027.45 1027.57 1027.67 1027.46 1026.98 1026.73 1026.24 1025.52 1024.96 1024.55 1024.08 1023.60 1022.93 1022.22 1021.48 1020.69 1019.92 1018.97 1017.60 1016.12 1015.14 1014.49 1014.29 1014.35 1013.52 1012.93 1012.78 1012.67
1017.35 1017.35 1017.49 1017.73 1018.32 1018.61 1019.49 1019.86 1020.61 1021.94 1023.22 1024.62 1025.44 1027.24 1027.72 1027.63 1027.60 1027.70 1027.69 1027.68 1027.50 1027.15 1026.75 1026.29 1025.65 1025.28 1024.94 1024.46 1023.76 1022.97 1022.25 1021.49 1020.74 1019.98 1018.78 1017.55 1017.27 1016.80 1016.73 1016.64 1015.42 1014.27 1013.74 1013.22
1018.07 1017.89 1018.02 1018.27 1018.56 1018.88 1019.64 1020.05 1020.90 1021.92 1023.24 1024.49 1025.66 1027.05 1027.73 1027.85 1027.68 1027.53 1027.50 1027.48 1027.37 1027.23 1026.96 1026.65 1026.13 1025.78 1025.61 1025.16 1024.51 1023.74 1022.96 1022.22 1021.61 1020.96 1020.18 1019.22 1018.27 1018.00 1017.45 1016.75 1016.01 1015.99 1015.40 1015.05
1018.03 1017.96 1018.07 1018.24 1018.59 1019.02 1019.65 1020.64 1021.72 1022.74 1023.94 1025.26 1025.59 1026.51 1028.02 1027.97 1027.80 1027.60 1027.49 1027.45 1027.41 1027.19 1026.87 1026.49 1026.11 1025.84 1025.77 1025.31 1024.61 1024.07 1023.33 1022.76 1022.20 1021.68 1021.06 1020.32 1019.72 1018.87 1017.96 1017.48 1016.76 1017.38 1016.04 1016.91
1018.69 1018.59 1018.33 1018.16 1018.84 1019.47 1020.37 1021.66 1023.35 1024.64 1025.27 1025.97 1025.75 1026.53 1027.07 1027.09 1027.20 1027.26 1027.26 1027.17 1027.01 1026.93 1026.84 1026.76 1026.43 1026.10 1025.72 1025.52 1024.99 1024.50 1023.85 1023.13 1022.60 1022.20 1021.82 1021.28 1020.75 1020.14 1019.20 1018.66 1018.38 1017.96 1016.86 1015.50
1019.25 1019.49 1018.80 1018.59 1019.07 1019.91 1021.00 1022.10 1023.28 1024.64 1025.88 1026.34 1026.32 1026.70 1026.25 1026.38 1026.52 1026.58 1026.71 1026.70 1026.62 1026.58 1026.54 1026.57 1026.43 1026.24 1026.05 1025.71 1025.30 1024.78 1024.26 1023.51 1022.73 1022.55 1022.48 1022.11 1021.45 1021.11 1020.48 1019.51 1019.03 1018.84 1018.68 1018.39
1019.18 1019.53 1019.17 1019.03 1019.23 1019.96 1021.35 1022.61 1023.49 1024.95 1026.56 1027.16 1027.41 1027.20 1026.34 1026.09 1026.19 1026.12 1026.14 1026.20 1026.05 1026.09 1026.09 1026.18 1026.21 1026.12 1026.02 1025.91 1025.54 1025.07 1024.58 1023.84 1023.26 1022.98 1022.71 1022.56 1022.22 1021.76 1021.39 1020.54 1019.83 1019.68 1019.16 1018.67
1018.97 1019.83 1019.75 1019.64 1019.76 1020.63 1021.30 1022.76 1024.24 1025.86 1027.69 1028.42 1028.01 1027.50 1026.20 1025.85 1025.64 1025.58 1025.56 1025.56 1025.42 1025.45 1025.54 1025.66 1025.75 1025.84 1025.77 1025.79 1025.50 1025.04 1024.74 1024.35 1023.87 1023.39 1023.09 1022.88 1022.68 1022.43 1021.96 1021.50 1020.88 1020.34 1020.11 1019.57
1018.72 1019.78 1020.72 1020.43 1020.67 1021.19 1022.20 1023.32 1024.88 1026.21 1027.46 1028.39 1028.49 1027.06 1024.70 1024.62 1024.68 1024.89 1024.77 1024.75 1024.88 1024.92 1025.03 1025.21 1025.23 1025.44 1025.52 1025.49 1025.53 1025.33 1025.01 1024.62 1024.23 1023.83 1023.67 1023.41 1023.06 1022.71 1022.32 1021.80 1021.25 1020.88 1020.54 1020.27
1018.76 1020.12 1021.36 1021.13 1020.98 1020.89 1021.75 1022.96 1024.46 1026.59 1028.10 1028.45 1027.97 1025.70 1023.84 1023.73 1023.73 1023.91 1024.04 1024.17 1024.24 1024.35 1024.54 1024.89 1025.10 1025.28 1025.37 1025.43 1025.50 1025.41 1025.27 1024.91 1024.57 1024.33 1024.18 1023.94 1023.54 1023.04 1022.44 1022.07 1021.56 1020.96 1021.04 1020.54
1018.87 1020.34 1021.66 1022.00 1021.84 1021.36 1021.71 1022.62 1023.75 1025.38 1026.72 1027.41 1027.32 1025.05 1023.30 1023.24 1023.39 1023.49 1023.80 1023.88 1024.00 1024.13 1024.53 1024.84 1025.11 1025.33 1025.41 1025.45 1025.53 1025.65 1025.52 1025.29 1025.02 1024.80 1024.59 1024.23 1023.80 1023.37 1022.95 1022.42 1021.88 1021.41 1021.10 1020.72
1018.89 1020.31 1020.63 1020.73 1020.50 1020.73 1021.48 1021.91 1023.02 1024.04 1025.53 1025.77 1025.09 1023.91 1023.13 1022.91 1023.01 1023.21 1023.54 1023.88 1024.19 1024.40 1024.71 1025.10 1025.41 1025.50 1025.55 1025.61 1025.72 1025.63 1025.61 1025.43 1025.26 1024.98 1024.69 1024.39 1024.01 1023.58 1023.11 1022.50 1021.90 1021.58 1021.32 1020.60
1019.62 1020.68 1020.97 1020.81 1020.42 1020.52 1020.69 1021.19 1022.01 1022.63 1023.11 1023.39 1022.81 1022.60 1021.87 1021.75 1022.12 1022.61 1023.13 1023.88 1024.28 1024.58 1024.82 1025.08 1025.39 1025.56 1025.67 1025.68 1025.60 1025.60 1025.58 1025.42 1025.24 1025.07 1024.78 1024.44 1024.01 1023.66 1023.25 1022.69 1022.37 1022.05 1021.57 1021.03
1020.39 1021.31 1021.61 1021.76 1021.17 1020.78 1020.62 1020.58 1020.91 1021.23 1021.51 1021.53 1021.39 1021.24 1020.43 1020.77 1021.58 1022.49 1023.06 1023.63 1024.04 1024.43 1024.68 1024.88 1025.12 1025.42 1025.59 1025.71 1025.74 1025.71 1025.65 1025.55 1025.31 1025.14 1024.94 1024.54 1024.11 1023.72 1023.41 1023.18 1022.91 1022.52 1022.07 1021.52
1020.94 1021.90 1022.90 1023.06 1022.20 1021.48 1020.77 1019.14 1019.27 1019.71 1019.61 1019.84 1020.08 1019.66 1019.91 1020.64 1021.23 1021.88 1022.67 1023.18 1023.65 1024.15 1024.44 1024.77 1025.07 1025.37 1025.60 1025.69 1025.78 1025.92 1025.92 1025.69 1025.52 1025.39 1025.09 1024.74 1024.38 1024.04 1023.71 1023.45 1023.05 1022.66 1022.20 1021.79
1021.00 1022.40 1023.48 1024.32 1023.39 1021.84 1018.39 1017.51 1017.46 1017.87 1018.15 1018.33 1018.48 1018.77 1019.12 1019.51 1020.15 1021.19 1021.84 1022.52 1023.39 1023.82 1024.24 1024.65 1024.99 1025.31 1025.50 1025.65 1025.75 1025.79 1025.88 1025.83 1025.76 1025.56 1025.17 1024.68 1024.32 1024.14 1023.95 1023.84 1023.51 1022.92 1022.36 1021.91
1020.34 1022.19 1024.49 1024.99 1024.11 1020.78 1017.83 1016.65 1016.66 1017.09 1016.53 1016.49 1017.14 1018.07 1018.97 1019.73 1020.55 1021.63 1021.75 1022.17 1022.69 1023.40 1023.89 1024.38 1024.68 1025.06 1025.35 1025.55 1025.61 1025.75 1025.83 1025.80 1025.68 1025.50 1025.22 1024.81 1024.47 1024.20 1023.89 1023.86 1023.50 1023.04 1022.51 1021.83
1021.21 1021.87 1023.79 1025.44 1024.35 1021.40 1017.42 1015.92 1015.47 1016.08 1015.90 1014.81 1015.64 1017.09 1018.46 1019.61 1020.92 1021.00 1021.46 1022.06 1022.67 1023.10 1023.60 1024.11 1024.49 1024.90 1025.24 1025.53 1025.69 1025.85 1025.82 1025.69 1025.57 1025.37 1025.13 1024.87 1024.66 1024.31 1023.99 1023.62 1023.22 1022.80 1022.24 1021.66
1021.76 1022.95 1023.99 1024.84 1023.45 1020.08 1016.98 1015.98 1015.62 1016.40 1015.24 1014.10 1014.64 1015.82 1017.32 1018.16 1018.31 1019.24 1020.92 1021.99 1022.36 1022.98 1023.49 1023.89 1024.46 1024.98 1025.41 1025.69 1025.84 1025.91 1025.90 1025.80 1025.52 1025.13 1024.86 1024.62 1024.46 1024.16 1023.78 1023.43 1023.06 1022.59 1022.02 1021.40
1020.08 1021.71 1023.02 1023.30 1022.49 1019.79 1016.10 1016.08 1015.77 1014.70 1014.31 1014.25 1014.70 1015.31 1016.43 1017.77 1018.64 1019.37 1020.78 1021.78 1022.51 1023.05 1023.59 1024.09 1024.75 1025.28 1025.61 1025.78 1025.93 1026.04 1026.05 1025.72 1025.37 1025.07 1024.78 1024.51 1024.23 1024.03 1023.79 1023.45 1022.93 1022.46 1021.87 1021.21
1018.87 1018.44 1019.51 1019.68 1018.57 1016.58 1015.73 1015.34 1014.67 1014.53 1014.39 1014.51 1014.75 1015.45 1016.24 1017.64 1018.62 1019.58 1020.70 1021.71 1022.48 1023.06 1023.73 1024.27 1024.87 1025.44 1025.72 1025.83 1025.87 1026.00 1025.85 1025.63 1025.42 1025.21 1024.98 1024.66 1024.30 1024.01 1023.66 1023.27 1022.79 1022.26 1021.68 1021.06
1017.26 1017.38 1017.71 1018.02 1016.24 1015.71 1015.17 1014.79 1014.62 1014.39 1014.42 1014.30 1014.59 1015.35 1016.32 1017.34 1018.48 1019.62 1020.73 1021.71 1022.46 1023.15 1023.79 1024.34 1024.96 1025.43 1025.61 1025.62 1025.69 1025.76 1025.64 1025.57 1025.45 1025.32 1025.11 1024.76 1024.48 1023.95 1023.56 1023.22 1022.89 1022.36 1021.73 1021.05
1015.77 1016.32 1016.52 1016.48 1015.43 1014.83 1014.24 1014.02 1014.05 1014.17 1014.41 1014.30 1015.04 1015.38 1016.25 1017.26 1018.65 1019.50 1020.71 1021.58 1022.31 1023.03 1023.74 1024.22 1024.76 1025.17 1025.39 1025.49 1025.56 1025.44 1025.48 1025.47 1025.45 1025.35 1025.13 1024.85 1024.50 1023.89 1023.32 1022.90 1022.46 1022.06 1021.49 1020.97
1014.47 1014.65 1014.95 1014.72 1013.83 1013.63 1013.26 1012.95 1013.24 1013.99 1014.21 1014.32 1014.96 1016.08 1016.72 1017.12 1018.40 1019.48 1020.49 1021.25 1022.10 1022.92 1023.54 1024.11 1024.47 1024.82 1025.01 1025.19 1025.27 1025.25 1025.30 1025.38 1025.48 1025.36 1025.11 1024.76 1024.32 1023.80 1023.18 1022.50 1021.73 1021.41 1020.77 1020.12
Wind_Speed
6 9 5 3 3 6 8 8 12 1 6 11 8 6 5 6 10 12 12 10 10 11 8 11 14 15 15 16 17 18 18 18 13 11 8 4 4 4 6 7 9 9 10 11
8 6 2 6 7 15 11 12 7 7 3 7 3 6 4 5 4 5 6 8 8 7 10 12 14 14 15 15 16 17 16 16 14 9 8 5 6 5 5 6 7 8 10 12
6 2 6 8 7 9 4 7 3 8 6 8 6 4 4 2 3 3 4 5 7 8 10 11 13 13 13 15 15 15 16 16 14 16 8 7 7 7 9 11 7 7 11 12
7 4 7 9 7 5 5 3 6 8 4 4 4 2 4 4 5 3 4 4 6 8 8 7 9 11 11 12 12 13 13 15 14 15 11 13 9 8 7 8 10 13 13 7
4 4 5 6 3 3 4 2 4 4 5 5 2 4 5 4 6 5 6 6 7 7 7 8 7 7 10 9 10 9 12 14 14 14 13 9 10 7 6 7 10 13 13 13
4 3 3 3 3 4 5 6 8 5 4 3 2 5 5 3 5 6 3 6 6 7 8 8 7 6 6 7 9 9 9 12 14 13 14 14 12 10 10 11 10 8 7 10
4 3 2 4 6 4 7 6 4 4 4 5 0 3 7 5 6 6 6 7 7 6 6 6 8 8 9 9 10 10 10 11 11 13 13 13 13 11 12 11 9 11 11 8
5 1 2 1 4 6 3 5 5 6 4 3 4 4 6 7 6 6 7 7 6 7 5 6 6 6 7 8 8 9 11 11 10 10 10 10 11 8 7 9 8 8 7 8
5 2 1 3 2 5 3 2 2 6 3 3 2 6 6 6 6 6 8 6 9 7 6 8 6 5 7 7 8 7 9 11 9 10 9 9 7 9 8 10 9 7 9 9
6 5 1 1 4 6 3 4 4 4 5 4 3 5 6 5 7 6 7 8 8 6 6 7 6 5 5 5 6 8 8 8 8 7 8 8 8 7 6 6 9 9 9 10
6 6 2 5 4 7 2 2 5 4 3 5 2 8 7 9 8 8 9 8 8 7 6 6 6 5 5 6 5 7 7 7 7 6 6 8 8 8 7 6 7 7 6 8
3 6 4 4 4 6 5 6 6 7 6 1 4 9 4 8 9 8 9 5 6 5 4 3 5 5 6 6 6 6 7 6 6 6 6 6 7 7 8 8 9 8 9 9
7 1 4 5 7 4 4 5 5 6 3 5 7 8 3 5 5 6 6 5 3 4 4 4 3 3 5 5 5 5 5 6 5 5 5 6 6 6 6 7 7 9 9 10
6 3 7 9 7 6 6 7 8 6 4 5 6 4 5 8 9 6 6 6 6 6 6 5 4 4 4 4 3 4 5 5 5 5 5 6 7 7 6 6 7 8 9 11
5 5 3 2 3 5 5 11 13 8 5 6 5 9 9 13 12 10 8 7 7 7 6 6 4 3 3 5 5 5 5 5 4 5 6 7 7 7 7 8 7 6 8 10
3 2 3 2 1 2 2 9 13 13 6 7 4 7 7 7 8 8 12 10 8 7 7 6 5 5 4 4 5 5 6 6 5 6 7 8 9 9 10 8 6 7 8 9
6 6 4 4 1 4 8 15 17 11 8 12 11 10 6 6 11 15 11 10 10 8 7 6 6 5 3 2 2 4 4 5 6 6 6 7 8 9 11 9 11 11 9 8
8 6 3 3 2 1 9 3 11 19 10 15 7 7 13 14 12 12 10 12 9 8 7 6 6 4 3 2 1 2 4 4 5 5 5 6 6 5 6 7 9 10 10 10
4 6 3 6 4 7 5 7 9 13 15 18 20 9 6 7 7 1 6 7 10 8 7 6 6 5 3 1 2 3 5 5 5 5 6 7 7 6 6 6 7 5 7 10
6 6 6 3 5 10 6 2 7 6 8 13 19 15 15 12 9 6 10 8 8 8 7 7 6 4 3 1 3 3 5 5 5 5 6 5 9 6 6 10 11 11 13 13
4 3 7 3 4 9 9 4 2 7 10 5 18 19 21 18 9 8 11 7 7 7 8 7 5 5 3 3 3 3 4 5 5 5 5 7 7 12 12 14 12 13 13 12
9 9 4 4 3 9 5 4 9 8 1 5 9 17 21 8 9 17 13 9 9 8 7 7 6 6 4 3 2 2 4 5 6 6 6 5 5 7 10 11 12 14 12 12
4 9 8 10 10 5 4 5 5 2 3 5 9 11 16 10 10 15 12 11 9 9 7 6 7 6 4 2 1 2 5 6 6 6 6 6 6 6 8 10 11 10 9 9
4 4 4 4 7 11 8 6 5 5 5 5 6 13 15 13 14 11 11 9 8 7 7 6 7 6 4 2 2 4 5 5 5 6 6 6 6 7 7 8 7 7 8 8
6 11 8 4 8 5 7 8 6 4 4 9 8 13 14 16 13 13 9 10 10 9 6 7 7 6 6 5 5 5 4 3 4 5 5 6 5 6 8 7 7 7 8 8
6 8 7 7 11 6 6 7 8 8 9 14 15 8 9 14 15 11 10 10 10 9 7 6 7 6 6 6 5 4 3 3 4 5 4 5 5 6 6 8 9 9 15 17
Wind_Direction
13 67 79 53 63 114 103 94 101 75 164 73 82 90 32 19 41 34 21 20 17 9 344 3 3 3 6 6 1 359 357 356 354 352 345 341 278 233 229 240 245 237 221 216
38 70 20 100 74 100 101 107 99 43 95 82 146 81 66 34 45 47 21 7 0 348 355 3 2 2 6 0 0 357 358 357 355 346 338 317 307 305 234 220 232 229 228 220
110 136 71 80 68 101 53 124 136 136 112 45 124 25 359 23 42 60 25 343 343 344 342 349 358 356 356 359 355 356 354 358 358 348 345 358 357 7 360 357 303 253 237 232
82 321 102 82 77 83 79 126 106 110 120 155 179 275 300 330 316 347 345 360 330 331 330 331 354 347 343 343 342 350 354 358 1 356 359 32 33 25 6 339 352 0 13 9
231 99 92 88 134 105 164 129 101 104 87 90 175 100 260 344 331 332 337 344 326 329 319 331 339 338 323 335 338 335 353 5 1 0 5 10 35 30 13 1 17 359 1 358
103 171 93 148 83 78 114 70 39 53 78 39 218 131 273 213 215 297 295 306 291 312 324 334 324 337 324 338 351 333 356 8 7 2 4 11 15 17 28 17 18 8 357 350
32 22 0 91 79 47 70 77 34 13 14 216 163 49 229 220 226 230 278 290 282 286 301 321 335 343 344 347 347 342 344 9 6 10 5 5 9 5 19 19 13 17 4 25
135 296 181 112 138 160 99 146 155 183 186 220 18 239 257 204 216 232 241 263 280 278 270 291 306 333 327 333 339 341 338 0 7 11 1 355 12 6 6 17 6 6 25 11
125 351 39 96 94 101 161 68 172 103 25 73 259 297 305 207 238 255 260 268 270 262 268 264 290 305 319 330 323 336 340 342 357 10 12 5 358 6 5 12 21 9 1 10
184 107 214 144 81 42 129 139 67 2 130 227 266 273 231 217 235 248 264 254 266 277 278 272 262 276 293 302 316 331 337 331 334 355 11 9 355 353 351 15 20 16 2 353
129 103 246 98 192 173 127 106 57 105 126 155 182 261 208 188 197 212 242 243 252 272 279 279 273 266 283 300 316 317 330 334 350 10 2 1 353 348 350 1 14 4 1 1
174 126 143 194 318 183 164 162 139 123 247 97 138 272 215 185 197 195 233 260 271 247 274 311 308 303 301 309 331 349 338 351 22 21 16 360 352 346 2 3 4 7 358 359
185 119 94 0 350 325 193 177 127 118 99 202 132 260 219 209 212 217 223 241 177 98 69 35 31 342 332 349 25 1 12 20 23 21 12 359 357 356 349 352 1 8 3 359
88 135 156 181 197 154 190 167 163 134 134 173 221 212 208 211 212 200 177 163 146 141 129 115 88 47 40 53 31 22 31 36 17 9 2 4 352 343 340 340 354 1 358 360
113 153 159 183 171 160 186 176 178 183 181 164 223 201 208 205 200 184 166 167 158 152 146 146 117 100 77 34 14 13 25 30 8 9 2 352 339 338 342 350 353 351 359 359
8 157 91 320 305 105 229 195 195 207 189 243 220 238 212 183 122 146 170 171 163 163 162 145 115 118 79 43 23 14 17 10 12 14 3 352 349 349 353 355 345 351 348 350
130 131 102 244 322 81 312 216 204 207 205 193 214 211 151 152 166 177 177 174 170 171 164 152 153 150 133 92 64 38 20 11 14 4 351 347 347 348 351 1 358 356 352 341
133 111 94 174 36 247 238 207 217 211 211 217 218 189 179 184 180 169 175 163 170 166 163 162 161 160 167 141 89 87 35 24 8 347 331 329 339 341 342 357 348 342 346 345
142 120 95 139 205 289 254 205 172 172 239 209 210 198 166 112 77 160 177 167 166 169 172 175 172 170 163 162 71 60 14 2 349 337 335 331 335 343 348 347 338 319 329 342
71 74 110 107 148 211 247 317 136 101 284 198 185 162 147 140 168 221 184 169 163 161 159 157 159 149 143 81 85 46 1 352 352 343 346 356 347 334 342 343 343 339 341 336
122 38 147 142 228 285 246 242 162 111 238 186 183 163 160 178 192 155 151 162 157 163 165 144 148 151 134 103 86 30 354 340 313 318 332 342 342 342 341 341 340 337 332 326
160 146 175 99 90 266 191 105 175 224 237 169 158 166 171 158 136 148 158 155 157 158 145 137 126 128 123 102 73 346 323 304 313 318 322 327 341 342 339 333 333 332 328 324
185 179 178 177 205 234 230 244 283 238 188 170 147 168 163 140 153 155 159 158 164 155 146 136 137 139 142 145 113 328 289 306 311 320 325 329 336 340 336 328 324 321 322 321
229 143 175 111 241 237 244 256 253 228 237 162 158 157 156 149 149 148 150 153 150 148 150 147 147 162 179 204 250 244 291 316 329 333 332 327 327 318 319 328 314 306 305 310
185 155 165 270 285 282 253 213 232 216 170 115 138 155 154 142 155 154 155 159 160 156 154 156 164 172 195 208 243 262 285 320 341 329 315 308 297 308 322 313 301 293 284 277
177 165 170 211 220 181 233 207 175 165 177 153 142 130 147 152 157 160 164 163 157 162 160 164 176 182 203 209 240 280 298 0 347 322 306 291 294 299 310 312 306 273 272 281